Wind_Speed
49 52 51 48 48 48 50 52 52 49 49 51 47 48 48 42 36 34 33 35 37 41 37 35 34 35 33 33 35 32 33 36 37 38 38 36 34 34 34 35 37 37 37 37
49 52 50 50 50 51 53 55 56 56 52 52 54 51 49 51 42 36 32 34 36 38 36 35 34 31 34 37 34 36 35 32 32 35 37 38 39 38 39 39 42 43 43 42
50 53 51 52 53 52 53 58 55 56 55 55 57 57 55 49 44 38 36 34 35 40 35 32 35 36 34 34 37 34 33 34 34 35 37 39 39 39 41 41 43 45 47 49
51 47 50 52 54 51 58 55 57 56 56 58 56 59 57 53 52 50 49 42 37 36 39 38 38 42 39 38 32 36 41 41 39 41 41 41 41 40 40 42 43 43 45 47
46 48 51 55 55 56 59 56 60 61 60 63 61 61 64 56 57 38 35 43 43 41 41 44 39 38 43 45 44 46 45 45 47 47 47 45 47 47 47 45 46 46 47 48
50 53 54 53 53 54 56 58 60 63 60 62 62 61 64 57 50 49 58 50 38 39 37 43 47 47 51 52 53 53 52 51 50 48 48 50 51 50 50 51 50 51 51 52
47 50 51 48 51 50 50 54 59 60 59 61 62 64 67 60 59 59 57 52 41 39 48 56 58 55 57 57 58 58 56 56 56 54 53 52 52 53 54 54 54 55 58 59
52 50 46 47 46 50 53 55 52 53 57 60 60 63 66 64 66 64 60 63 64 65 68 66 64 64 63 60 58 60 60 61 62 63 63 63 62 60 57 59 58 58 60 63
54 50 52 50 52 55 59 58 54 58 60 66 66 63 65 66 68 68 68 68 67 60 61 48 37 40 42 49 63 68 67 65 66 65 67 66 65 64 65 61 62 65 64 61
63 65 61 63 58 57 56 53 56 57 64 68 67 70 70 68 71 68 66 60 58 49 54 57 59 66 70 72 74 73 70 69 68 68 69 67 71 73 73 70 66 67 65 63
58 60 64 67 68 62 67 69 69 71 60 49 51 65 63 65 69 72 76 76 72 70 71 71 72 74 74 75 74 74 73 71 69 67 66 66 64 63 66 70 69 70 73 73
57 63 65 63 59 63 61 61 61 65 69 72 77 81 67 71 73 74 76 75 77 77 76 74 75 77 77 78 78 79 79 77 77 76 72 67 67 71 74 79 78 72 74 74
60 63 62 65 63 63 62 62 63 66 66 69 72 69 61 63 71 75 77 79 81 81 76 77 79 83 86 85 82 82 82 81 76 75 78 73 69 72 77 81 82 79 78 78
59 62 62 63 64 66 60 60 63 48 45 48 50 53 57 61 69 80 79 79 81 84 86 87 87 86 88 88 82 78 78 77 79 79 76 76 76 74 79 84 86 82 83 81
61 63 62 64 65 66 69 69 67 72 72 78 78 82 77 78 77 78 74 77 82 85 89 91 91 92 92 86 84 81 81 85 88 88 86 81 77 80 82 82 85 88 85 81
60 65 65 67 66 71 76 74 74 77 82 82 81 83 81 79 78 79 79 77 79 85 88 90 89 88 89 89 88 87 91 96 100 100 100 98 89 83 89 86 83 83 80 77
66 68 71 76 73 78 83 75 77 79 78 78 80 77 78 79 77 76 77 78 79 82 89 94 95 97 97 99 100 102 102 104 103 101 101 101 101 97 93 95 92 95 93 93
73 74 75 81 77 84 84 78 78 78 78 79 79 79 79 79 79 78 80 82 82 85 86 89 93 98 102 105 106 108 109 111 111 110 109 108 106 103 102 101 104 106 99 96
73 72 75 75 76 80 78 70 69 71 72 71 72 73 73 76 79 78 79 81 84 84 88 90 93 95 97 99 103 104 104 105 105 105 106 106 104 104 103 102 104 107 110 111
75 68 66 68 68 69 65 62 61 61 65 64 66 67 68 70 73 71 69 71 74 76 77 79 81 83 85 87 90 92 93 94 95 95 97 98 99 100 101 99 98 99 101 99
64 62 62 61 64 66 59 58 57 56 57 58 61 62 62 64 65 65 64 66 68 70 72 75 76 77 77 80 83 84 86 88 91 92 92 91 91 91 92 93 92 91 91 90
56 57 57 58 59 60 55 54 52 52 53 55 57 58 61 63 64 66 67 68 70 72 73 75 77 78 78 81 85 86 87 90 92 94 94 94 94 93 93 94 93 95 94 91
53 53 56 55 53 50 51 50 50 52 56 55 59 59 61 63 64 66 66 66 67 69 71 71 73 76 75 77 81 84 84 87 90 92 93 94 95 93 92 91 91 93 94 96
48 50 53 55 45 48 49 50 53 54 57 57 59 60 62 62 63 63 62 61 61 61 65 68 71 73 75 77 79 83 85 87 87 86 85 85 86 84 84 85 86 87 88 91
43 49 48 51 44 49 48 51 53 54 55 56 58 59 59 59 58 57 55 56 61 64 64 66 69 70 71 73 73 74 76 77 75 73 73 74 74 74 73 74 75 77 78 82
39 45 49 50 45 50 51 52 53 54 55 57 57 55 54 53 52 53 55 59 63 64 64 63 62 64 63 64 63 62 63 62 60 57 56 56 56 55 56 58 58 61 64 68
Wind_Direction
275 277 281 281 278 280 281 284 287 292 290 283 280 283 289 285 277 278 281 277 273 273 270 269 271 274 274 270 270 267 266 264 265 266 267 267 265 262 264 268 269 271 270 267
275 276 278 277 277 277 279 282 283 286 284 282 285 282 283 283 286 282 278 279 274 272 271 270 270 260 269 271 269 268 264 259 260 263 265 267 266 267 268 270 272 272 271 266
269 271 273 273 271 273 277 276 280 280 283 283 285 284 282 284 284 282 274 273 272 278 272 265 262 270 267 266 270 271 272 272 267 263 262 263 262 262 264 263 264 264 266 269
265 266 267 269 273 275 271 275 275 277 278 279 279 280 284 285 286 282 283 278 269 267 265 263 263 260 263 261 254 268 276 273 270 272 271 264 261 260 260 263 263 261 263 266
267 264 264 266 269 269 273 273 274 275 274 277 276 280 282 286 285 290 280 285 282 281 273 265 259 255 257 260 262 271 277 273 268 267 266 264 264 263 262 257 258 263 265 264
272 272 273 275 273 270 271 272 272 271 269 270 274 276 277 284 288 282 284 285 278 272 254 256 271 267 265 261 262 266 266 268 271 275 269 266 265 268 268 265 263 262 261 263
275 275 276 274 273 274 274 275 272 269 268 269 270 271 272 275 277 278 282 279 266 249 255 269 272 268 265 263 262 263 266 267 269 272 271 265 266 268 268 266 267 268 268 265
281 275 267 269 265 265 264 266 271 273 270 265 264 266 271 275 276 277 275 273 273 273 275 275 276 275 274 269 269 269 269 268 266 268 268 268 268 268 269 268 270 265 261 262
273 266 267 261 263 272 272 272 270 271 265 266 263 262 264 267 270 273 275 276 278 280 284 283 278 266 261 256 272 277 275 272 273 273 269 270 271 270 269 269 270 269 263 258
286 280 273 277 280 276 282 279 277 280 285 282 269 268 269 269 270 274 277 278 277 270 275 270 268 271 271 275 277 278 277 276 274 272 270 268 268 269 270 269 271 269 267 265
286 283 285 284 284 283 277 276 278 280 278 271 268 272 275 276 275 274 274 277 274 272 272 273 274 274 274 274 273 274 275 274 273 272 271 271 270 263 259 260 264 262 264 264
283 282 282 283 283 281 280 277 274 271 277 277 276 276 275 275 276 276 275 276 278 278 277 278 279 279 277 276 276 276 275 274 273 271 268 268 268 266 263 259 264 262 259 259
285 282 285 287 285 282 277 275 274 277 275 274 275 279 279 276 276 273 275 276 277 278 276 276 278 278 278 277 276 275 274 274 273 273 271 269 271 270 264 259 256 259 259 259
281 279 280 279 278 279 273 272 277 273 264 270 264 262 261 266 268 273 273 270 270 272 274 277 278 278 277 275 273 272 270 269 272 272 270 274 274 270 264 259 258 257 256 257
283 282 282 280 278 274 273 271 266 261 264 269 266 266 266 268 265 267 267 265 267 268 271 274 275 275 272 270 271 271 271 273 274 273 270 273 272 269 264 258 256 254 253 252
282 285 285 284 282 278 274 273 271 266 268 271 272 272 272 272 269 268 268 265 265 267 270 270 270 270 270 269 269 267 271 275 277 276 276 273 273 265 259 256 254 252 250 250
285 286 285 283 281 277 275 282 274 273 272 273 273 273 273 271 270 269 269 268 268 266 265 266 269 270 271 270 277 279 280 278 276 274 271 271 272 271 265 257 256 252 252 254
287 287 285 284 280 275 285 278 274 273 271 271 273 274 274 274 273 272 274 274 274 274 274 273 274 273 275 278 280 280 279 279 279 279 278 275 272 269 266 263 262 259 254 251
288 287 284 281 281 281 280 281 280 279 278 278 278 277 277 276 275 275 277 278 279 279 279 279 278 278 279 279 279 279 279 279 279 278 278 278 278 276 274 269 265 262 262 260
289 286 282 281 280 282 284 285 284 283 279 279 279 279 280 281 281 280 280 280 280 281 281 280 280 280 280 279 279 279 279 278 278 277 277 276 276 275 274 272 270 268 264 263
284 283 281 282 283 283 286 285 284 281 284 281 281 282 284 285 286 287 285 284 284 284 283 283 283 283 283 282 281 280 280 280 279 279 278 277 276 275 274 274 272 270 267 265
283 283 283 280 279 284 288 287 285 286 285 285 286 287 287 288 290 289 289 290 290 289 289 288 288 287 286 286 284 283 283 282 281 281 280 279 277 275 274 273 271 271 270 266
281 282 279 280 282 286 286 286 286 286 286 286 287 288 288 288 288 289 289 290 290 290 291 291 291 289 289 288 287 286 285 283 281 280 281 280 279 277 275 272 270 268 267 266
281 278 279 277 283 280 281 283 284 284 285 286 288 287 288 289 289 291 292 293 293 294 294 295 294 293 291 290 289 288 287 287 286 285 284 282 280 278 275 272 269 267 265 264
281 280 283 278 283 280 282 286 288 288 288 288 286 286 287 289 292 293 293 295 297 299 301 300 298 295 294 292 292 291 289 289 289 287 285 283 281 280 278 276 273 270 266 263
280 281 279 285 283 285 284 287 288 288 288 288 286 287 290 293 293 294 296 299 302 303 303 301 300 299 298 296 297 295 293 294 293 291 290 288 286 284 282 281 278 276 272 267
Height
5809 5806 5808 5808 5804 5803 5799 5796 5793 5797 5794 5787 5789 5785 5784 5788 5790 5791 5792 5790 5787 5784 5780 5780 5779 5778 5777 5778 5778 5779 5779 5778 5778 5777 5778 5778 5779 5778 5779 5779 5778 5778 5777 5778
5800 5795 5796 5795 5794 5792 5789 5785 5783 5781 5781 5779 5775 5773 5776 5773 5778 5779 5779 5778 5776 5775 5774 5771 5769 5769 5769 5768 5768 5768 5769 5768 5768 5767 5767 5768 5768 5769 5768 5768 5768 5767 5766 5766
5787 5784 5784 5782 5779 5781 5781 5773 5773 5768 5768 5767 5763 5761 5758 5764 5766 5766 5765 5766 5767 5765 5766 5765 5762 5761 5760 5760 5759 5758 5758 5758 5757 5756 5757 5757 5757 5757 5758 5757 5755 5754 5753 5754
5772 5775 5772 5769 5768 5767 5762 5767 5763 5760 5755 5752 5752 5748 5750 5752 5752 5750 5748 5750 5751 5753 5754 5753 5753 5751 5750 5749 5749 5750 5748 5747 5748 5748 5747 5745 5744 5744 5743 5744 5744 5742 5740 5740
5762 5759 5758 5757 5756 5753 5753 5752 5751 5749 5745 5741 5738 5738 5737 5741 5737 5736 5736 5735 5736 5738 5740 5740 5740 5740 5739 5739 5738 5737 5736 5735 5734 5733 5733 5733 5732 5731 5731 5730 5729 5728 5729 5727
5750 5749 5744 5743 5743 5741 5740 5738 5735 5733 5733 5730 5730 5730 5727 5727 5724 5725 5723 5720 5722 5725 5727 5725 5727 5728 5728 5727 5726 5725 5723 5721 5720 5721 5720 5719 5718 5718 5719 5719 5718 5716 5715 5713
5733 5733 5733 5732 5729 5729 5728 5726 5723 5722 5719 5721 5718 5716 5714 5717 5716 5710 5714 5711 5711 5712 5712 5711 5710 5710 5708 5709 5708 5709 5709 5708 5707 5705 5704 5704 5704 5703 5702 5701 5703 5704 5703 5701
5716 5723 5721 5719 5717 5715 5714 5713 5712 5705 5705 5705 5705 5702 5701 5702 5699 5699 5699 5695 5693 5692 5690 5690 5690 5689 5690 5690 5690 5691 5691 5692 5691 5690 5688 5686 5685 5684 5684 5684 5684 5685 5685 5685
5704 5706 5703 5705 5704 5703 5699 5700 5700 5690 5690 5682 5693 5695 5689 5688 5686 5684 5680 5679 5675 5674 5671 5669 5669 5669 5670 5672 5671 5674 5670 5670 5671 5671 5669 5667 5666 5666 5664 5662 5663 5666 5665 5664
5687 5688 5693 5691 5692 5691 5687 5686 5681 5679 5667 5666 5677 5676 5674 5674 5670 5665 5663 5661 5661 5659 5660 5657 5655 5655 5654 5653 5649 5649 5650 5649 5649 5648 5651 5651 5649 5646 5644 5643 5641 5641 5643 5645
5671 5670 5679 5674 5680 5681 5671 5666 5667 5663 5658 5652 5649 5658 5666 5662 5654 5650 5644 5642 5643 5642 5639 5637 5635 5632 5630 5629 5629 5626 5625 5626 5627 5627 5627 5627 5627 5626 5625 5625 5624 5623 5622 5621
5658 5648 5647 5656 5664 5655 5652 5647 5647 5640 5640 5635 5628 5626 5654 5645 5639 5634 5627 5626 5622 5621 5618 5614 5609 5608 5606 5604 5602 5601 5602 5601 5601 5604 5602 5602 5606 5606 5604 5602 5601 5601 5602 5601
5642 5634 5629 5631 5640 5637 5631 5632 5629 5625 5620 5614 5610 5610 5620 5621 5616 5608 5607 5603 5598 5593 5591 5589 5587 5583 5579 5580 5580 5579 5577 5577 5576 5575 5576 5576 5578 5580 5580 5577 5576 5577 5578 5579
5624 5620 5622 5618 5620 5618 5614 5614 5613 5609 5602 5598 5596 5595 5598 5600 5597 5586 5585 5582 5577 5572 5568 5565 5561 5560 5557 5555 5553 5553 5553 5553 5554 5553 5552 5551 5551 5553 5554 5553 5552 5553 5554 5555
5605 5601 5604 5601 5601 5598 5595 5594 5599 5592 5586 5576 5581 5573 5582 5574 5575 5572 5565 5562 5556 5552 5548 5544 5539 5535 5532 5529 5528 5527 5525 5525 5527 5529 5529 5528 5529 5528 5529 5529 5528 5528 5528 5528
5592 5583 5581 5578 5581 5575 5567 5574 5575 5571 5565 5556 5554 5550 5550 5548 5547 5545 5544 5542 5539 5532 5525 5520 5516 5513 5507 5503 5500 5500 5500 5500 5498 5494 5494 5497 5499 5501 5502 5501 5501 5501 5502 5502
5571 5566 5560 5550 5557 5545 5539 5561 5550 5546 5545 5537 5529 5528 5523 5520 5522 5524 5521 5517 5515 5513 5507 5500 5493 5488 5485 5480 5474 5471 5467 5467 5466 5466 5465 5465 5464 5467 5470 5472 5472 5473 5473 5475
5548 5547 5535 5527 5527 5513 5527 5525 5523 5520 5519 5514 5505 5502 5499 5496 5498 5503 5496 5492 5491 5486 5483 5480 5473 5467 5462 5455 5448 5443 5440 5435 5430 5427 5425 5427 5430 5434 5436 5438 5439 5440 5441 5442
5530 5523 5510 5504 5501 5493 5500 5501 5500 5495 5495 5489 5484 5478 5474 5471 5474 5483 5472 5468 5464 5460 5456 5454 5450 5446 5440 5433 5424 5419 5417 5409 5402 5397 5393 5390 5388 5388 5391 5395 5398 5400 5400 5406
5507 5502 5493 5489 5480 5475 5483 5482 5478 5474 5468 5468 5462 5458 5453 5448 5447 5457 5453 5445 5441 5436 5431 5426 5423 5419 5415 5409 5399 5392 5386 5380 5374 5370 5367 5363 5359 5356 5355 5355 5358 5359 5360 5365
5487 5483 5476 5470 5461 5458 5466 5464 5459 5455 5455 5447 5443 5441 5437 5430 5428 5428 5426 5422 5418 5413 5409 5403 5398 5396 5391 5383 5373 5368 5360 5353 5342 5338 5335 5333 5331 5327 5323 5320 5321 5321 5323 5327
5470 5465 5461 5455 5449 5447 5449 5444 5442 5439 5433 5428 5425 5423 5418 5413 5411 5406 5403 5399 5394 5388 5384 5379 5373 5369 5365 5353 5342 5339 5335 5325 5317 5309 5304 5300 5296 5295 5293 5289 5290 5288 5286 5290
5454 5452 5441 5440 5435 5438 5430 5427 5425 5421 5415 5417 5410 5408 5401 5398 5394 5389 5385 5380 5375 5367 5362 5356 5350 5344 5339 5329 5318 5309 5305 5295 5287 5280 5274 5266 5261 5260 5259 5257 5257 5253 5254 5253
5441 5435 5426 5420 5432 5421 5417 5415 5410 5406 5402 5400 5395 5391 5386 5381 5377 5373 5367 5361 5355 5349 5342 5335 5329 5322 5314 5303 5293 5281 5274 5264 5256 5250 5245 5237 5229 5226 5223 5220 5220 5220 5222 5223
5429 5417 5414 5405 5414 5404 5405 5399 5394 5391 5386 5383 5378 5374 5370 5366 5362 5357 5351 5345 5339 5331 5323 5315 5305 5298 5290 5280 5271 5259 5247 5237 5231 5224 5216 5208 5201 5197 5194 5192 5190 5189 5191 5190
5414 5404 5396 5392 5397 5386 5389 5385 5379 5375 5371 5367 5363 5359 5355 5351 5347 5343 5337 5329 5322 5314 5305 5296 5286 5275 5266 5256 5247 5236 5225 5216 5209 5202 5195 5188 5182 5177 5173 5169 5168 5164 5162 5163